Location: Bratislava
(0.0000°N, 17.1167°E)
Time: 05:35:00
(UTC+01:00)

Cosmos 1125 Rocket - Pass Details

Date: 24 January 2021
Orbit: 756 x 781 km, 74.0° (Epoch: 04 March)

Event Time Altitude Azimuth Distance (km) Brightness Sun altitude
Rises 18:53:32 0° 189° (S) 3,209 7.1 -11.8°
Reaches altitude 10° 18:55:55 10° 187° (S) 2,282 6.3 -12.3°
Maximum altitude 19:01:04 76° 102° (ESE) 782 3.4 -13.5°
Drops below altitude 10° 19:06:14 10° 17° (NNE) 2,279 5.6 -14.7°
Enters shadow 19:07:10 - 16° (NNE) 2,643 5.9 -15.0°
